Powrót do katalogu

OPS 9845

DMSP 5D-2 F6

AktywnyPogodaSSO
NORAD 13736·PAYLOAD·🇺🇸 United States

Wystrzelony Dec 21, 1982 z Vandenberg Space Force Base

Loading…

Następne Przeloty (najbliższe 24 godziny)

TLE

ŚwieżeSource: Space-Track

Epoka: Sep 14, 2026, 12:52 UTC

1 13736U 82118A   26257.53639585  .00000097  00000-0  53898-4 0  9999
2 13736  98.5938  84.0886 0008593  66.1558 294.0525 14.30547584277783

Śledź OPS 9845 w czasie rzeczywistym z AllMySat

Download on the App Store